CAPE
1601 1122 1294 1275 1069 888 808 1059 2535 2331 2404 2376 2484 2292 1950 1935 1704 1414 1712 1781 1442 1213
2013 1629 1066 1172 1566 1329 1403 1185 2070 2325 2387 2466 2410 2320 2421 2096 1870 1621 1534 1413 1418 1131
2094 2192 1805 1718 1850 1672 1629 2040 2527 2860 2636 2745 2733 2630 2433 1879 1655 1212 1134 1241 1108 809
2115 2129 2288 2088 2279 2408 2237 2387 2958 3132 2852 2712 2595 2468 2328 1705 573 806 1197 1302 994 925
2096 2114 1946 2085 2105 2399 2565 2734 3201 3399 3140 2230 1998 1856 1411 939 737 680 616 687 647 479
2091 2018 1885 1803 2096 2306 2887 3179 3117 3102 2476 1619 802 786 938 892 748 666 740 578 586 505
2125 1992 1922 2104 2409 2392 3296 3629 3224 2490 1842 1479 1322 1088 1079 1282 1112 1053 724 533 368 610
2074 2357 2021 2412 1690 3081 3224 2617 2200 1766 1975 1545 1314 700 686 1010 1005 1139 736 614 602 560
2805 2710 2767 3471 3359 3384 2051 2072 1800 1804 1478 1379 486 0 4 130 782 613 615 412 470 523
3111 3507 3655 2792 2623 2310 2275 2069 1735 1610 1354 887 30 0 0 191 382 239 335 504 411 451
3215 3047 2985 2706 2333 2080 1795 1646 1503 1291 1054 634 0 0 0 41 489 399 454 272 278 328
2773 2760 2482 2074 1748 1701 1446 1327 992 902 891 863 123 0 0 175 290 357 447 161 0 29
2312 1930 1597 1611 1519 1425 1232 817 634 622 660 394 396 0 0 29 239 213 422 302 82 0
1585 1609 1594 1577 1598 1435 1067 799 633 694 750 342 306 0 0 0 288 334 60 47 91 49
CIN
-47 -39 -24 -14 -2 -3 -2 -3 -8 -6 -1 -1 -0 -1 -0 -1 -6 -0 -4 -2 -8 -8
-68 -62 -27 -9 -10 -6 -8 -1 -13 -16 -1 -1 -1 -0 -0 -3 -3 -1 -2 -6 -2 -7
-58 -64 -45 -25 -25 -9 -1 -11 -6 -3 -4 -0 -1 -0 -0 -1 -3 -8 -14 -7 -26 -36
-54 -57 -58 -38 -34 -33 -27 -22 -5 -1 -6 -9 -3 -0 -1 -6 -48 -34 -16 -3 -13 -19
-57 -51 -41 -44 -39 -34 -42 -27 -6 -9 -4 -7 -5 -0 -29 -42 -36 -19 -18 -2 -1 -10
-69 -52 -31 -15 -29 -26 -7 -5 -0 -0 -2 -32 -96 -67 -20 -12 -18 -12 -1 -1 -1 -5
-60 -39 -33 -31 -35 -5 -5 -1 -0 -0 -12 -16 -22 -16 -6 -0 -0 -0 -6 -14 -29 -1
-65 -59 -92 -81 -75 -32 -29 -23 -75 -58 -0 -7 -6 -53 -37 -3 -0 -0 -1 -0 -0 -0
-66 -78 -59 -18 -41 -20 -69 -21 -65 -1 -0 -1 -72 -0 -227 -171 -0 -4 -0 -0 -1 -0
-32 -11 -4 -73 -46 -24 -13 -10 -6 -0 -3 -33 -194 -0 -0 -144 -51 -80 -23 -6 -7 -1
-21 -21 -17 -6 -6 -1 -3 -1 -1 -3 -17 -60 -0 -0 -0 -285 -21 -25 -7 -34 -25 -12
-12 -11 -15 -16 -18 -8 -18 -7 -36 -33 -22 -37 -297 -0 -0 -156 -24 -21 -3 -88 -10 -220
-9 -21 -27 -19 -16 -15 -17 -60 -69 -100 -95 -156 -125 -0 -0 -261 -40 -50 -11 -21 -139 -0
-16 -10 -10 -6 -2 -2 -30 -57 -88 -82 -59 -139 -192 -0 -0 -0 -82 -37 -170 -190 -107 -93
Wind_Speed
14 13 13 11 12 9 9 12 13 11 10 9 10 9 10 9 8 6 7 8 11 13
11 13 9 9 8 9 8 8 9 9 10 10 11 11 12 10 14 11 15 18 16 15
5 6 7 8 9 9 8 8 9 10 9 11 13 15 16 15 16 20 18 19 24 23
3 4 6 8 8 8 9 6 7 7 9 10 15 20 22 21 24 24 22 22 23 23
5 7 7 7 7 6 5 5 8 10 13 20 23 16 13 14 18 23 18 19 24 24
6 7 6 5 5 5 9 8 8 16 21 25 24 19 15 15 13 10 12 15 18 17
6 6 5 8 9 15 11 11 13 18 23 26 21 18 15 13 14 18 18 17 15 17
4 5 5 8 14 11 7 8 17 21 24 21 18 22 22 20 19 16 14 13 13 15
3 4 5 8 14 12 14 15 20 16 18 21 21 25 24 16 18 19 17 17 15 15
3 4 7 9 10 10 9 11 14 15 18 20 23 25 25 22 21 19 19 19 19 20
7 7 8 9 11 11 12 13 15 17 18 19 22 24 24 3 21 23 25 26 25 25
9 10 10 11 11 12 13 14 16 17 18 20 21 23 22 16 24 24 25 26 27 26
12 13 13 13 12 13 14 15 16 17 19 20 21 23 23 9 22 23 23 23 24 26
19 17 15 15 16 16 14 15 17 18 20 21 21 23 24 2 20 23 23 23 23 24
Wind_Direction
135 134 137 123 148 108 114 64 49 58 66 57 38 35 29 28 29 21 10 356 343 337
120 141 112 108 92 119 104 128 65 67 50 39 21 11 3 1 348 351 340 335 336 333
97 99 112 111 132 129 104 90 49 43 43 29 20 0 343 336 339 331 332 331 323 321
82 102 116 131 132 128 139 109 56 47 24 22 8 357 346 329 320 325 327 326 322 323
123 133 136 134 117 111 112 54 26 12 3 349 351 15 29 21 350 330 346 338 322 324
112 123 118 85 95 37 2 18 30 354 336 337 349 359 9 5 4 3 352 346 339 341
100 102 92 355 5 337 0 10 290 350 342 338 356 6 14 21 13 0 354 351 350 345
94 86 56 28 346 353 45 51 355 339 333 355 13 4 5 7 13 25 30 27 19 8
20 23 22 5 2 355 354 350 344 9 9 2 10 359 7 37 31 24 29 28 34 33
38 17 2 359 13 23 40 40 22 28 14 7 1 356 13 32 33 47 48 48 48 45
38 37 36 43 52 59 51 33 30 19 13 22 11 356 1 221 59 50 40 31 30 32
58 55 52 46 47 40 39 37 25 24 25 25 18 2 360 33 48 52 47 43 40 42
62 67 68 57 44 42 39 29 40 38 34 38 45 38 47 271 58 55 58 58 55 43
90 80 70 65 67 58 3 38 47 53 56 53 54 47 48 128 65 48 54 54 49 45